User: anonymous   Login
Location: Newark
(41.9000°N, 12.4833°E)
Time: 23:06:32
(UTC+00:00)
Language:

BEESAT - Orbit

View from above orbital plane
View from above orbital plane
View from above satellite
View from above satellite

Ground track
Ground track

The orbit data is extracted from the following two-line orbital elements,

1 35933U 09051C   19141.70603625  .00000077  00000-0  28332-4 0  9999
2 35933  98.5882 308.6093 0004598 262.5508  97.5167 14.56366682512817
Epoch (UTC): 21 May 2019 16:56:41
Eccentricity: 0.0004598
inclination: 98.5882°
perigee height: 701 km
apogee height: 708 km
right ascension of ascending node: 308.6093°
argument of perigee: 262.5508°
revolutions per day: 14.56366682
mean anomaly at epoch: 97.5167°
orbit number at epoch: 51281

The dashed part of the orbit path shows where the satellite is in the earth's shadow,  

DLR